Location: Banff
(51.1667°N, 115.5667°W)
Time: 09:20:37
(UTC+00:00)

Envisat - Pass Details

Date: 01 December 2022
Orbit: 763 x 765 km, 98.2° (Epoch: 28 January)

Event Time Altitude Azimuth Distance (km) Brightness Sun altitude
Rises 10:35:13 0° 27° (NNE) 3,246 6.8 -44.0°
Reaches altitude 10° 10:38:29 10° 49° (NE) 2,313 6.0 -43.5°
Enters shadow 10:39:21 13° 58° (ENE) 2,137 5.8 -43.4°
